Location: Unspecified
(42.2730°N, 83.7130°W)
Time: 14:48:42
(UTC+00:00)

Cosmos 1898 Rocket - Pass Details

Date: 14 December 2025
Orbit: 749 x 779 km, 74.0° (Epoch: 17 January)

Event Time Altitude Azimuth Distance (km) Brightness Sun altitude
Rises 23:07:55 0° 190° (S) 3,179 7.1 -11.6°
Reaches altitude 10° 23:10:17 10° 187° (S) 2,260 6.3 -12.0°
Maximum altitude 23:15:20 65° 106° (ESE) 826 3.5 -12.9°
Drops below altitude 10° 23:20:27 10° 26° (NNE) 2,284 5.5 -13.8°
Enters shadow 23:20:36 - 26° (NNE) 2,340 5.6 -13.8°
